Flag Weather past 2 weeks in Bratislava, Slovakia

Now
41 °F

Overcast.


Feels Like: 37 °F
Forecast: 33 / 42 °F
Wind: 6 mph from Northeast

Location: Bratislava Ivanka

Current Time: Nov 22, 2014 at 10:47:04 PM

Latest Report: Nov 22, 2014 at 10:00 PM


Visibility: 5 mi

Pressure: 30.36 "Hg

Humidity: 87%

Dew point: 37 °F

Location of BratislavaLocation

Historic Weather in Bratislava — Graph

°F

Bratislava temperature yesterday

Maximum temperature yesterday: 46 °F (at 10:30 AM)
Minimum temperature yesterday: 34 °F (at 7:00 AM)
Average temperature yesterday: 40 °F

Past Weeks' High & Low Weather Summary

 TemperatureHumidityPressure
High64 °F (Nov 10, 2:00 PM)100% (Nov 9, 3:30 AM)30.36 "Hg (Nov 9, 3:30 AM)
Low34 °F (Nov 21, 7:00 AM)59% (Nov 13, 12:30 PM)29.74 "Hg (Nov 16, 4:00 AM)
Average48 °F85%29.99 "Hg
* Reported Nov 7 9:00 PM — Nov 22 9:30 PM, Bratislava, Weather by CustomWeather, © 2014

Note: Actual official high and low records may vary slightly from our data, if they occured in-between our weather recording intervals... More about our weather records

Advertising

Bratislava weather history for previous 24 hours

 ConditionsComfort  
Time TempWeatherWind HumidityBarometerVisibility
9:30 PM
Nov 22
41 °FOvercast.6 mph87%30.36 "Hg5 mi
9:00 PM41 °FOvercast.3 mph87%30.36 "Hg5 mi
8:30 PM41 °FOvercast.7 mph87%30.36 "Hg5 mi
8:00 PM41 °FOvercast.6 mph87%30.33 "Hg5 mi
7:30 PM41 °FOvercast.5 mph87%30.33 "Hg5 mi
7:00 PM41 °FLow clouds.7 mph87%30.33 "Hg5 mi
6:30 PM41 °FLow clouds.7 mph87%30.33 "Hg4 mi
6:00 PM41 °FLow clouds.7 mph87%30.33 "Hg4 mi
5:30 PM41 °FMostly cloudy.6 mph87%30.33 "Hg4 mi
5:00 PM41 °FLow clouds.5 mph87%30.33 "Hg5 mi
4:30 PM41 °FMostly cloudy.6 mph87%30.33 "Hg4 mi
4:00 PM41 °FMore clouds than sun.6 mph87%30.33 "Hg4 mi
3:30 PM41 °FFog.5 mph87%30.30 "Hg3 mi
3:00 PM41 °FFog.7 mph87%30.30 "Hg3 mi
2:30 PM41 °FFog.7 mph87%30.30 "Hg3 mi
2:00 PM41 °FBroken clouds.5 mph87%30.33 "Hg3 mi
1:30 PM41 °FBroken clouds.7 mph81%30.30 "Hg4 mi
1:00 PM41 °FBroken clouds.7 mph87%30.30 "Hg4 mi
12:30 PM41 °FBroken clouds.7 mph81%30.33 "Hg4 mi
12:00 PM39 °FPartly sunny.6 mph87%30.33 "Hg5 mi
11:30 AM39 °FBroken clouds.7 mph87%30.33 "Hg5 mi
11:00 AM39 °FLow clouds.6 mph87%30.33 "Hg5 mi
10:30 AM37 °FPartly sunny.6 mph93%30.33 "Hg5 mi
10:00 AM37 °FLow clouds.6 mph87%30.33 "Hg5 mi
9:30 AM37 °FPartly sunny.5 mph87%30.33 "Hg5 mi
9:00 AM36 °FPartly sunny.5 mph93%30.33 "Hg4 mi
8:30 AM36 °FPartly sunny.3 mph93%30.30 "Hg4 mi
8:00 AM36 °FBroken clouds.5 mph87%30.30 "Hg4 mi
7:30 AM34 °FBroken clouds.5 mph93%30.30 "Hg4 mi
7:00 AM34 °FMostly cloudy.3 mph93%30.30 "Hg4 mi
6:30 AM34 °FMostly cloudy.3 mph93%30.27 "Hg5 mi
6:00 AM34 °FMostly cloudy.2 mph93%30.27 "Hg5 mi
5:30 AM34 °FPartly cloudy.3 mph87%30.27 "Hg5 mi
5:00 AM34 °FPassing clouds.6 mph87%30.27 "HgN/A
4:30 AM36 °FPassing clouds.3 mph87%30.27 "HgN/A
4:00 AM36 °FPassing clouds.3 mph87%30.27 "HgN/A
3:30 AM36 °FPassing clouds.2 mph93%30.27 "HgN/A
3:00 AM36 °FPassing clouds.3 mph93%30.27 "HgN/A
2:30 AM36 °FPassing clouds.2 mph93%30.27 "HgN/A
2:00 AM37 °FPassing clouds.6 mph87%30.27 "HgN/A
1:30 AM36 °FPassing clouds.1 mph93%30.27 "HgN/A
1:00 AM36 °FPassing clouds.1 mph93%30.27 "HgN/A
12:30 AM36 °FPassing clouds.1 mph93%30.27 "HgN/A
12:00 AM36 °FPassing clouds.1 mph87%30.30 "HgN/A
11:30 PM
Nov 21
34 °FFog.No wind93%30.30 "HgN/A
11:00 PM34 °FFog.No wind87%30.30 "HgN/A
10:30 PM36 °FClear.No wind87%30.27 "Hg10 mi
10:00 PM37 °FClear.2 mph87%30.27 "Hg10 mi
Weather by CustomWeather, © 2014

See weather overviewHow to use our weather pages